Change the Weather History Date:

Saturday, August 24, 2013

  Actual Average (KFDY) Record (KFDY)
Temperature  
Mean Temperature 68 °F -  
Max Temperature 82 °F 79 °F 94 °F (1959)
Min Temperature 53 °F 59 °F 45 °F (1951)
Cooling Degree Days 2    
Growing Degree Days 18 (Base 50)    
Moisture  
Dew Point 55 °F    
Average Humidity 66    
Maximum Humidity 89    
Minimum Humidity 39    
Precipitation  
Precipitation 0.01 in - - ()
Sea Level Pressure  
Sea Level Pressure 30.26 in    
Wind  
Wind Speed 4 mph (East)    
Max Wind Speed 12 mph    
Max Gust Speed -    
Visibility 10 miles    
Events      
Averages and records for this station are not official NWS values.
T = Trace of Precipitation, MM = Missing Value Source: NWS Daily Summary

Daily Weather History Graph

Daily Weather History Graph

Search for Another Location

Airport or City:

Trip Planner

Search our weather history database for the weather conditions in past years. The results will help you decide how hot, cold, wet, or windy it might be!

Date:

Astronomy

Aug. 24, 2013 Rise Set
Actual Time 6:55 AM EDT 8:20 PM EDT
Civil Twilight 6:26 AM EDT 8:49 PM EDT
Nautical Twilight 5:52 AM EDT 9:23 PM EDT
Astronomical Twilight 5:16 AM EDT 9:59 PM EDT
Moon 10:12 PM EDT (8/24) 10:56 AM EDT (8/24)
Length of Visible Light 14h 22m
Length of Day
13h 24m
Waning Gibbous, 84% of the Moon is Illuminated
Aug 24
Waning Gibbous
Aug 28
Last Quarter
Sep 5
New
Sep 12
First Quarter
Sep 19
Full

Hourly Weather History & Observations

Time (EDT) Temp. Heat Index Dew Point Humidity Pressure Visibility Wind Dir Wind Speed Gust Speed Precip Events Conditions
12:53 AM 57.0 °F - 54.0 °F 89% 30.19 in 10.0 mi Calm Calm - N/A   Clear
1:53 AM 57.9 °F - 54.0 °F 87% 30.19 in 10.0 mi ENE 3.5 mph - N/A   Clear
2:53 AM 57.9 °F - 52.0 °F 81% 30.19 in 10.0 mi East 3.5 mph - N/A   Clear
3:53 AM 57.0 °F - 50.0 °F 77% 30.21 in 10.0 mi Calm Calm - N/A   Clear
4:53 AM 55.9 °F - 51.1 °F 84% 30.22 in 10.0 mi NE 4.6 mph - 0.01 in   Clear
5:53 AM 55.0 °F - 51.1 °F 86% 30.24 in 10.0 mi ENE 4.6 mph - N/A   Clear
6:53 AM 53.1 °F - 48.9 °F 86% 30.25 in 10.0 mi NE 3.5 mph - N/A   Clear
7:53 AM 57.9 °F - 53.1 °F 84% 30.28 in 10.0 mi ENE 3.5 mph - N/A   Clear
8:53 AM 66.0 °F - 57.0 °F 73% 30.30 in 10.0 mi East 3.5 mph - N/A   Clear
9:53 AM 70.0 °F - 57.0 °F 63% 30.30 in 10.0 mi East 6.9 mph - N/A   Clear
10:53 AM 75.0 °F - 59.0 °F 57% 30.30 in 10.0 mi East 5.8 mph - N/A   Clear
11:53 AM 78.1 °F - 57.9 °F 50% 30.30 in 10.0 mi ESE 8.1 mph - N/A   Clear
12:53 PM 79.0 °F - 55.9 °F 45% 30.29 in 10.0 mi ESE 9.2 mph - N/A   Clear
1:53 PM 81.0 °F 80.7 °F 55.0 °F 41% 30.28 in 10.0 mi East 11.5 mph - N/A   Clear
2:53 PM 82.0 °F 81.6 °F 55.9 °F 41% 30.27 in 10.0 mi East 9.2 mph - N/A   Clear
3:53 PM 82.9 °F 82.1 °F 55.9 °F 39% 30.26 in 10.0 mi ESE 6.9 mph - N/A   Clear
4:53 PM 82.0 °F 81.6 °F 55.9 °F 41% 30.26 in 10.0 mi ENE 3.5 mph - N/A   Clear
5:53 PM 81.0 °F 81.1 °F 57.9 °F 45% 30.25 in 10.0 mi East 4.6 mph - N/A   Clear
6:53 PM 80.1 °F 80.7 °F 59.0 °F 48% 30.26 in 10.0 mi ENE 4.6 mph - N/A   Clear
7:53 PM 73.9 °F - 60.1 °F 62% 30.26 in 10.0 mi ENE 4.6 mph - N/A   Clear
8:53 PM 68.0 °F - 59.0 °F 73% 30.26 in 10.0 mi East 3.5 mph - N/A   Clear
9:53 PM 66.0 °F - 57.0 °F 73% 30.28 in 10.0 mi East 5.8 mph - N/A   Clear
10:53 PM 64.9 °F - 57.9 °F 78% 30.27 in 10.0 mi East 8.1 mph - N/A   Clear
11:53 PM 64.0 °F - 57.0 °F 78% 30.27 in 10.0 mi East 8.1 mph - N/A   Clear